Météo par heure à Almargem do Bispo

Ce jour, 15 Mai, Samedi

Heure Température Précipitation Vent Pression Humidité
00:00 +14°C° 0 mm 2 m/s 753 mmHg 94%
01:00 +14°C° 0 mm 2 m/s 753 mmHg 95%
02:00 +14°C° 0 mm 2 m/s 752 mmHg 96%
03:00 +14°C° 0 mm 2 m/s 752 mmHg 96%
04:00 +14°C° 0 mm 1 m/s 752 mmHg 95%
05:00 +14°C° 0 mm 1 m/s 753 mmHg 95%
06:00 +16°C° 0 mm 2 m/s 753 mmHg 88%
07:00 +18°C° 0 mm 2 m/s 753 mmHg 80%
08:00 +20°C° 0 mm 2 m/s 753 mmHg 72%
09:00 +21°C° 0 mm 2 m/s 753 mmHg 67%
10:00 +22°C° 0 mm 3 m/s 753 mmHg 63%
11:00 +25°C° 0 mm 3 m/s 753 mmHg 58%
12:00 +23°C° 0 mm 4 m/s 753 mmHg 59%
13:00 +23°C° 0 mm 4 m/s 753 mmHg 59%
14:00 +23°C° 0 mm 5 m/s 753 mmHg 60%
15:00 +22°C° 0 mm 4 m/s 752 mmHg 63%
16:00 +22°C° 0 mm 4 m/s 752 mmHg 67%
17:00 +21°C° 0 mm 4 m/s 752 mmHg 70%
18:00 +19°C° 0 mm 4 m/s 752 mmHg 77%
19:00 +18°C° 0 mm 3 m/s 752 mmHg 84%
20:00 +17°C° 0 mm 3 m/s 753 mmHg 91%
21:00 +17°C° 0 mm 2 m/s 753 mmHg 92%
22:00 +16°C° 0 mm 2 m/s 752 mmHg 93%
23:00 +16°C° 0 mm 2 m/s 752 mmHg 93%

Demain, 16 Mai, Dimanche

Heure Température Précipitation Vent Pression Humidité
00:00 +16°C° 0 mm 2 m/s 752 mmHg 94%
01:00 +16°C° 0 mm 2 m/s 752 mmHg 94%
02:00 +16°C° 0 mm 2 m/s 751 mmHg 95%
03:00 +16°C° 0 mm 2 m/s 751 mmHg 95%
04:00 +16°C° 0 mm 2 m/s 751 mmHg 94%
05:00 +17°C° 0 mm 2 m/s 752 mmHg 94%
06:00 +18°C° 0 mm 2 m/s 752 mmHg 88%
07:00 +18°C° 0 mm 2 m/s 752 mmHg 82%
08:00 +19°C° 0 mm 2 m/s 752 mmHg 76%
09:00 +20°C° 0 mm 3 m/s 752 mmHg 72%
10:00 +21°C° 0 mm 4 m/s 753 mmHg 68%
11:00 +22°C° 0 mm 5 m/s 753 mmHg 63%
12:00 +23°C° 0 mm 5 m/s 752 mmHg 61%
13:00 +23°C° 0 mm 5 m/s 752 mmHg 60%
14:00 +23°C° 0 mm 5 m/s 752 mmHg 58%
15:00 +22°C° 0 mm 5 m/s 752 mmHg 63%
16:00 +21°C° 0 mm 5 m/s 752 mmHg 68%
17:00 +20°C° 0 mm 5 m/s 752 mmHg 73%
18:00 +19°C° 0 mm 5 m/s 752 mmHg 80%
19:00 +18°C° 0 mm 4 m/s 753 mmHg 87%
20:00 +17°C° 0 mm 4 m/s 753 mmHg 94%
21:00 +17°C° 0 mm 4 m/s 753 mmHg 94%
22:00 +15°C° 0 mm 4 m/s 752 mmHg 95%
23:00 +16°C° 0 mm 3 m/s 752 mmHg 96%

Après-demain, 17 Mai, Lundi

Heure Température Précipitation Vent Pression Humidité
00:00 +15°C° 0 mm 4 m/s 752 mmHg 95%
01:00 +17°C° 0 mm 4 m/s 752 mmHg 94%
02:00 +17°C° 0 mm 4 m/s 752 mmHg 94%
03:00 +15°C° 0 mm 5 m/s 752 mmHg 91%
04:00 +15°C° 0 mm 5 m/s 753 mmHg 89%
05:00 +15°C° 0 mm 5 m/s 753 mmHg 86%
06:00 +16°C° 0 mm 5 m/s 754 mmHg 78%
07:00 +17°C° 0 mm 5 m/s 754 mmHg 70%
08:00 +19°C° 0 mm 5 m/s 754 mmHg 62%
09:00 +20°C° 0 mm 6 m/s 754 mmHg 56%
10:00 +21°C° 0 mm 7 m/s 755 mmHg 50%
11:00 +22°C° 0 mm 7 m/s 755 mmHg 44%
12:00 +22°C° 0 mm 7 m/s 755 mmHg 42%
13:00 +22°C° 0 mm 7 m/s 755 mmHg 40%
14:00 +22°C° 0 mm 7 m/s 755 mmHg 38%
15:00 +21°C° 0 mm 7 m/s 755 mmHg 42%
16:00 +18°C° 0 mm 7 m/s 755 mmHg 47%
17:00 +17°C° 0 mm 7 m/s 755 mmHg 51%
18:00 +16°C° 0 mm 7 m/s 755 mmHg 55%
19:00 +15°C° 0 mm 6 m/s 756 mmHg 59%
20:00 +14°C° 0 mm 6 m/s 756 mmHg 64%
21:00 +14°C° 0 mm 6 m/s 756 mmHg 65%
22:00 +13°C° 0 mm 6 m/s 756 mmHg 66%
23:00 +13°C° 0 mm 6 m/s 756 mmHg 68%

18 Mai, Mardi

Heure Température Précipitation Vent Pression Humidité
00:00 +13°C° 0 mm 5 m/s 756 mmHg 70%
01:00 +12°C° 0 mm 5 m/s 755 mmHg 71%
02:00 +12°C° 0 mm 5 m/s 755 mmHg 73%
03:00 +12°C° 0 mm 5 m/s 755 mmHg 74%
04:00 +12°C° 0 mm 5 m/s 756 mmHg 74%
05:00 +13°C° 0 mm 5 m/s 756 mmHg 75%
06:00 +15°C° 0 mm 5 m/s 756 mmHg 64%
07:00 +17°C° 0 mm 5 m/s 756 mmHg 53%
08:00 +20°C° 0 mm 5 m/s 756 mmHg 42%
09:00 +22°C° 0 mm 5 m/s 756 mmHg 39%
10:00 +23°C° 0 mm 5 m/s 756 mmHg 37%
11:00 +26°C° 0 mm 5 m/s 756 mmHg 34%
12:00 +26°C° 0 mm 6 m/s 756 mmHg 34%
13:00 +26°C° 0 mm 6 m/s 756 mmHg 34%
14:00 +26°C° 0 mm 7 m/s 755 mmHg 35%
15:00 +24°C° 0 mm 7 m/s 755 mmHg 37%
16:00 +22°C° 0 mm 7 m/s 756 mmHg 39%
17:00 +21°C° 0 mm 7 m/s 756 mmHg 42%
18:00 +19°C° 0 mm 6 m/s 756 mmHg 48%
19:00 +16°C° 0 mm 6 m/s 756 mmHg 53%
20:00 +15°C° 0 mm 6 m/s 756 mmHg 59%
21:00 +14°C° 0 mm 5 m/s 756 mmHg 61%
22:00 +14°C° 0 mm 5 m/s 756 mmHg 62%
23:00 +14°C° 0 mm 5 m/s 756 mmHg 64%

19 Mai, Mercredi

Heure Température Précipitation Vent Pression Humidité
00:00 +13°C° 0 mm 5 m/s 756 mmHg 66%
01:00 +13°C° 0 mm 5 m/s 755 mmHg 68%
02:00 +13°C° 0 mm 4 m/s 755 mmHg 69%
03:00 +13°C° 0 mm 4 m/s 755 mmHg 70%
04:00 +13°C° 0 mm 4 m/s 755 mmHg 71%
05:00 +13°C° 0 mm 4 m/s 755 mmHg 71%
06:00 +15°C° 0 mm 4 m/s 755 mmHg 60%
07:00 +19°C° 0 mm 3 m/s 755 mmHg 49%
08:00 +22°C° 0 mm 3 m/s 755 mmHg 38%
09:00 +25°C° 0 mm 4 m/s 755 mmHg 34%
10:00 +26°C° 0 mm 4 m/s 755 mmHg 30%
11:00 +28°C° 0 mm 4 m/s 755 mmHg 26%
12:00 +28°C° 0 mm 5 m/s 755 mmHg 28%
13:00 +28°C° 0 mm 6 m/s 754 mmHg 30%
14:00 +28°C° 0 mm 6 m/s 754 mmHg 32%
15:00 +26°C° 0 mm 7 m/s 754 mmHg 35%
16:00 +24°C° 0 mm 7 m/s 754 mmHg 38%
17:00 +22°C° 0 mm 7 m/s 754 mmHg 40%
18:00 +20°C° 0 mm 6 m/s 754 mmHg 46%
19:00 +17°C° 0 mm 6 m/s 755 mmHg 52%
20:00 +15°C° 0 mm 5 m/s 755 mmHg 57%
21:00 +15°C° 0 mm 5 m/s 755 mmHg 60%
22:00 +14°C° 0 mm 5 m/s 755 mmHg 63%
23:00 +14°C° 0 mm 5 m/s 755 mmHg 65%

20 Mai, Jeudi

Heure Température Précipitation Vent Pression Humidité
00:00 +14°C° 0 mm 5 m/s 755 mmHg 67%
01:00 +14°C° 0 mm 5 m/s 754 mmHg 68%
02:00 +14°C° 0 mm 5 m/s 754 mmHg 69%
03:00 +14°C° 0 mm 5 m/s 754 mmHg 72%
04:00 +14°C° 0 mm 5 m/s 754 mmHg 75%
05:00 +14°C° 0 mm 5 m/s 754 mmHg 77%
06:00 +16°C° 0 mm 6 m/s 754 mmHg 70%
07:00 +18°C° 0 mm 7 m/s 755 mmHg 63%
08:00 +21°C° 0 mm 7 m/s 755 mmHg 56%
09:00 +22°C° 0 mm 8 m/s 755 mmHg 50%
10:00 +24°C° 0 mm 8 m/s 755 mmHg 43%
11:00 +26°C° 0 mm 8 m/s 755 mmHg 36%
12:00 +26°C° 0 mm 8 m/s 755 mmHg 37%
13:00 +26°C° 0 mm 9 m/s 754 mmHg 38%
14:00 +26°C° 0 mm 9 m/s 754 mmHg 40%
15:00 +23°C° 0 mm 9 m/s 754 mmHg 47%
16:00 +22°C° 0 mm 9 m/s 754 mmHg 55%
17:00 +19°C° 0 mm 9 m/s 754 mmHg 62%
18:00 +17°C° 0 mm 8 m/s 754 mmHg 64%
19:00 +16°C° 0 mm 8 m/s 754 mmHg 66%
20:00 +13°C° 0 mm 8 m/s 754 mmHg 67%
21:00 +13°C° 0 mm 8 m/s 754 mmHg 69%
22:00 +13°C° 0 mm 8 m/s 754 mmHg 70%
23:00 +12°C° 0 mm 8 m/s 754 mmHg 72%
Voir plus

Nous avons besoin de votre consentement

Meteoprog et ses fournisseurs de services peuvent stocker et accéder à des données personnelles telles que des cookies, des identifiants d'appareils ou d'autres technologies similaires sur votre appareil et traiter ces données pour personnaliser le contenu et les publicités, ainsi que pour fournir des fonctionnalités de médias sociaux et analyser le trafic.

  • Stocker et/ou accéder à des informations sur votre appareil

    Des cookies, des identifiants d'appareils ou d'autres informations peuvent être stockés ou accessibles sur votre appareil aux fins indiquées ci-dessus.

  • Annonces et contenus personnalisés, mesure des annonces et des contenus, connaissance de l'audience et développement de produits

    Les annonces et le contenu peuvent être personnalisés en fonction d'un profil. D'autres données peuvent être ajoutées pour mieux personnaliser les annonces et le contenu. Les performances des publicités et du contenu peuvent être mesurées. Il est possible d'obtenir des informations sur le public qui a vu les publicités et le contenu. Ces données peuvent être utilisées pour développer ou améliorer l'expérience de l'utilisateur, les systèmes et les logiciels.

En cliquant sur "J'accepte", vous autorisez l'utilisation de cookies, des identifiants d'appareils, des balises web ou d'autres technologies similaires. Vos paramètres peuvent être modifiés dans le navigateur de votre appareil.

Dans certains cas, des intérêts légitimes peuvent être invoqués plutôt qu'un consentement. Vous pouvez en savoir plus à ce sujet dans notre Politique de confidentialité et de cookies.